This demonstration page uses our WeatherBlox Daily Observations layout. Learn more.

Left ArrowRight Arrow

Hourly Observations for April 20, 2022

Temp ( °F °C ) Dew Point ( °F °C ) Humidity (%) Winds ( mph kmh ) Pressure ( in mb ) Visibility ( mi km ) Precip ( " mm )
12:15 am 00:15 Partly Cloudy 48 9 35 1.5 60 60 SSE 21 33 29.63 1003 10 16 0.00 0.00
12:35 am 00:35 Partly Cloudy 48 8.9 35 1.8 61 61 SSE 18 30 29.62 1003 10 16 0.00 0.00
12:55 am 00:55 Partly Cloudy 48 9 36 2.1 62 62 SSE 18 30 29.61 1003 10 16 0.00 0.00
1:15 am 01:15 Clear 48 9 36 2.2 63 63 SSE 17 28 29.61 1003 10 16 0.00 0.00
1:35 am 01:35 Clear 48 8.8 36 2.3 64 64 SSE 17 28 29.60 1002 10 16 0.00 0.00
1:55 am 01:55 Clear 48 9 37 2.5 64 64 SSE 18 30 29.59 1002 10 16 0.00 0.00
2:15 am 02:15 Clear 48 9 37 2.8 65 65 SSE 16 26 29.58 1002 10 16 0.00 0.00
2:35 am 02:35 Clear 49 9.2 38 3.2 66 66 SSE 15 24 29.58 1002 10 16 0.00 0.00
2:55 am 02:55 Clear 48 9.1 38 3.5 68 68 SE 16 26 29.56 1001 10 16 0.00 0.00
3:15 am 03:15 Clear 48 9 38 3.5 69 69 SSE 15 24 29.55 1001 10 16 0.00 0.00
3:35 am 03:35 Partly Cloudy 48 9.1 39 3.7 69 69 SSE 15 24 29.55 1001 10 16 0.00 0.00
3:55 am 03:55 Cloudy 49 9.5 39 4 69 69 SE 9 15 29.55 1001 10 16 0.00 0.00
4:15 am 04:15 Cloudy 50 10 40 4.4 68 68 SSE 12 19 29.54 1000 10 16 0.00 0.00
4:35 am 04:35 Cloudy 51 10.6 41 5 69 69 SE 9 15 29.54 1000 10 16 0.00 0.00
4:55 am 04:55 Cloudy 51 10.7 41 5.2 69 69 SE 6 9 29.54 1000 10 16 0.00 0.00
5:15 am 05:15 Cloudy 52 11 42 5.5 69 69 SE 6 9 29.54 1000 10 16 0.00 0.00
5:35 am 05:35 Cloudy 52 11 42 5.5 69 69 ESE 5 7 29.54 1000 10 16 0.00 0.00
5:55 am 05:55 Cloudy 50 9.9 40 4.5 69 69 NE 7 11 29.55 1001 10 16 0.00 0.00
6:15 am 06:15 Cloudy 50 9.9 40 4.6 70 70 NE 5 7 29.56 1001 10 16 0.00 0.00
6:35 am 06:35 Cloudy 50 10 40 4.7 70 70 N 5 7 29.58 1002 10 16 0.00 0.00
6:55 am 06:55 Cloudy 50 10 41 5 71 71 NNE 7 11 29.58 1002 10 16 0.00 0.00
7:15 am 07:15 Cloudy 50 10.1 41 5 71 71 NNE 8 13 29.60 1002 10 16 0.00 0.00
7:35 am 07:35 Cloudy 50 10.1 41 5.1 71 71 N 8 13 29.61 1003 10 16 0.00 0.00
7:55 am 07:55 Cloudy 50 9.9 40 4.4 69 69 NNE 13 20 29.60 1002 10 16 0.00 0.00
8:15 am 08:15 Cloudy 49 9.5 39 4 69 69 NNE 10 17 29.63 1003 10 16 0.00 0.00
8:35 am 08:35 Cloudy 49 9.5 39 3.8 68 68 N 9 15 29.65 1004 10 16 0.00 0.00
8:55 am 08:55 Cloudy 49 9.7 39 3.7 67 67 N 10 17 29.67 1005 10 16 0.00 0.00
9:15 am 09:15 Cloudy with Nearby Thunderstorms 51 10.7 40 4.3 65 65 NNE 7 11 29.66 1004 10 16 0.00 0.00
9:35 am 09:35 Cloudy with Nearby Thunderstorms 53 11.7 41 4.9 63 63 N 8 13 29.64 1004 10 16 0.00 0.00
9:55 am 09:55 Partly Cloudy 55 12.6 41 5.1 61 61 N 10 17 29.63 1003 10 16 0.00 0.00
10:15 am 10:15 Sunny 57 14.1 41 5.1 55 55 NNW 17 28 29.65 1004 10 16 0.00 0.00
10:35 am 10:35 Partly Cloudy 56 13.2 40 4.7 57 57 NNW 21 33 29.66 1004 10 16 0.00 0.00
10:55 am 10:55 Partly Cloudy 56 13.5 40 4.5 55 55 NW 22 35 29.67 1005 10 16 0.00 0.00
11:15 am 11:15 Partly Cloudy 57 14.1 39 4.1 51 51 NNW 23 37 29.67 1005 10 16 0.00 0.00
11:35 am 11:35 Sunny 59 15.2 38 3.2 45 45 N 22 35 29.66 1004 10 16 0.00 0.00
11:55 am 11:55 Sunny 60 15.8 37 2.6 41 41 N 18 30 29.65 1004 10 16 0.00 0.00
12:15 pm 12:15 Sunny 62 16.8 37 3 40 40 NNE 20 31 29.63 1004 10 16 0.00 0.00
12:35 pm 12:35 Sunny 64 17.5 37 3 38 38 N 21 33 29.64 1004 10 16 0.00 0.00
12:55 pm 12:55 Sunny 65 18.1 37 2.5 35 35 N 24 39 29.64 1004 10 16 0.00 0.00
1:15 pm 13:15 Sunny 65 18.6 36 2 33 33 N 20 31 29.64 1004 10 16 0.00 0.00
1:35 pm 13:35 Sunny 67 19.2 34 1.2 30 30 N 23 37 29.63 1004 10 16 0.00 0.00
1:55 pm 13:55 Sunny 67 19.7 32 0.1 27 27 NNW 21 33 29.63 1003 10 16 0.00 0.00
2:15 pm 14:15 Sunny 68 20 31 -0.5 25 25 NNW 23 37 29.65 1004 10 16 0.00 0.00
2:35 pm 14:35 Sunny 68 19.8 31 -0.7 25 25 NNW 23 37 29.65 1004 10 16 0.00 0.00
2:55 pm 14:55 Sunny 69 20.3 31 -0.4 25 25 N 21 33 29.65 1004 10 16 0.00 0.00
3:15 pm 15:15 Sunny 70 20.9 31 -0.3 24 24 NW 17 28 29.64 1004 10 16 0.00 0.00
3:35 pm 15:35 Sunny 70 20.9 31 -0.7 24 24 NW 15 24 29.63 1003 10 16 0.00 0.00
3:55 pm 15:55 Sunny 70 21 31 -0.6 24 24 NW 20 31 29.63 1003 10 16 0.00 0.00
4:15 pm 16:15 Sunny 70 21.1 30 -0.9 23 23 NW 16 26 29.63 1003 10 16 0.00 0.00
4:35 pm 16:35 Sunny 71 21.5 30 -1.3 22 22 NNW 18 30 29.64 1004 10 16 0.00 0.00
4:55 pm 16:55 Sunny 71 21.4 29 -1.4 22 22 NW 17 28 29.64 1004 10 16 0.00 0.00
5:15 pm 17:15 Sunny 71 21.7 28 -2 20 20 NW 20 31 29.64 1004 10 16 0.00 0.00
5:35 pm 17:35 Sunny 71 21.5 28 -2.1 21 21 N 16 26 29.65 1004 10 16 0.00 0.00
5:55 pm 17:55 Sunny 71 21.4 26 -3.1 19 19 NNW 21 33 29.66 1004 10 16 0.00 0.00
6:15 pm 18:15 Sunny 71 21.4 26 -3.6 18 18 NW 12 19 29.67 1005 10 16 0.00 0.00
6:35 pm 18:35 Sunny 70 21.3 25 -3.7 18 18 NW 16 26 29.68 1005 10 16 0.00 0.00
6:55 pm 18:55 Sunny 70 21 25 -3.9 18 18 NW 9 15 29.69 1005 10 16 0.00 0.00
7:15 pm 19:15 Sunny 69 20.5 26 -3.6 20 20 N 14 22 29.70 1006 10 16 0.00 0.00
7:35 pm 19:35 Sunny 68 20 25 -4.1 19 19 NNW 13 20 29.72 1006 10 16 0.00 0.00
7:55 pm 19:55 Sunny 66 19 24 -4.6 20 20 NNW 9 15 29.74 1007 10 16 0.00 0.00
8:15 pm 20:15 Sunny 62 16.8 25 -3.9 24 24 N 6 9 29.77 1008 10 16 0.00 0.00
8:35 pm 20:35 Clear 61 16 26 -3.3 27 27 NNW 6 9 29.78 1008 7 11 0.00 0.00
8:55 pm 20:55 Clear 58 14.4 26 -3.4 29 29 N 5 7 29.81 1010 10 16 0.00 0.00
9:15 pm 21:15 Clear 53 11.7 26 -3.1 36 36 NE 8 13 29.85 1011 10 16 0.00 0.00
9:35 pm 21:35 Clear 53 11.9 26 -3.5 34 34 NE 7 11 29.86 1011 10 16 0.00 0.00
9:55 pm 21:55 Clear 57 13.7 28 -2.2 33 33 ENE 7 11 29.86 1011 10 16 0.00 0.00
10:15 pm 22:15 Clear 52 11 26 -3.3 37 37 E 6 9 29.89 1012 10 16 0.00 0.00
10:35 pm 22:35 Clear 53 11.6 27 -2.7 37 37 ESE 7 11 29.90 1012 10 16 0.00 0.00
10:55 pm 22:55 Clear 49 9.7 26 -3.6 39 39 ESE 6 9 29.93 1013 10 16 0.00 0.00
11:15 pm 23:15 Clear 49 9.2 27 -3 43 43 SE 7 11 29.93 1014 10 16 0.00 0.00
11:35 pm 23:35 Clear 46 7.6 26 -3.4 46 46 ESE 6 9 29.95 1014 10 16 0.00 0.00
11:55 pm 23:55 Clear 45 7.1 26 -3.2 48 48 E 7 11 29.96 1015 10 16 0.00 0.00

Powered by AerisWeather